Theta_e
350 356 359 359 370 359 360 358 352 355 358 353 351 358 356 352 359 367 350 351 349 349 348 349 346 346 344 342 342 342 341 344 345 345 346 349 353 353 350 353 354 353 351 351 351 352 351 351 350
356 359 362 365 362 367 364 354 356 355 353 352 352 353 354 359 352 352 351 349 349 347 347 349 346 347 346 344 343 342 343 345 343 343 345 343 353 354 353 353 353 352 350 351 352 351 351 352 350
359 358 365 365 350 356 359 356 355 353 351 353 354 352 355 353 351 351 350 349 348 349 350 350 346 346 347 351 346 343 344 343 343 344 345 347 354 354 353 352 352 352 351 351 350 351 352 352 352
356 356 358 342 340 349 356 353 352 352 351 351 353 357 352 348 349 349 349 349 351 352 352 348 347 346 351 353 350 345 346 347 345 345 345 353 354 353 352 353 352 351 352 352 348 352 352 352 352
354 355 357 339 340 345 351 351 351 352 352 352 353 358 355 351 350 349 349 350 351 353 350 350 349 349 351 351 354 353 348 347 346 345 347 352 353 353 353 353 351 350 345 346 348 352 353 352 352
356 347 347 341 340 342 348 350 350 351 352 351 355 356 357 351 351 351 351 351 352 353 351 351 350 351 351 354 354 345 344 343 345 346 346 347 350 352 353 351 351 351 352 349 352 349 346 349 350
355 352 345 341 342 340 344 346 348 349 352 352 353 359 356 353 352 351 353 352 352 352 353 353 353 353 354 354 353 352 351 349 349 350 349 343 344 347 342 339 342 349 350 351 353 344 343 343 342
347 344 341 348 341 338 340 344 343 347 351 349 351 359 359 354 352 353 353 352 351 352 353 352 353 354 353 353 355 355 351 349 351 353 344 339 340 338 336 339 349 344 343 348 346 342 341 342 343
340 347 345 344 348 341 340 341 343 346 348 348 349 352 352 352 352 353 353 352 353 354 353 353 353 354 355 356 356 354 351 350 351 345 342 341 351 351 351 353 345 344 345 343 342 341 341 347 348
343 351 345 341 346 343 341 340 344 346 348 349 350 351 351 352 351 352 353 355 353 353 353 352 353 354 354 350 354 351 349 348 348 348 349 351 350 352 350 350 345 344 341 344 344 344 346 349 350
339 350 345 342 342 343 342 342 342 345 348 349 351 351 351 352 352 352 352 352 351 350 350 354 354 355 356 353 351 351 351 350 349 350 352 350 351 352 352 353 353 353 348 353 352 350 349 348 347
338 343 342 342 341 344 342 342 342 342 344 345 348 348 350 352 353 351 352 351 351 351 350 352 355 356 355 352 351 351 349 348 349 350 352 353 351 351 351 352 351 352 350 350 350 348 349 349 349
336 339 338 338 341 342 344 343 341 341 342 344 348 348 349 351 351 351 350 350 350 351 351 351 353 354 355 356 350 350 349 348 349 349 351 351 350 353 353 352 351 351 350 349 348 348 349 348 347
336 337 337 337 339 342 345 344 344 342 343 346 350 349 349 350 350 350 350 350 350 350 350 351 353 355 355 355 355 352 350 350 348 349 348 352 352 351 353 351 350 349 349 349 347 351 349 347 344
335 335 338 338 339 342 343 345 343 343 346 348 350 351 349 349 348 349 349 350 350 350 351 351 352 354 355 356 355 352 351 349 350 348 350 351 352 352 354 351 350 349 350 352 350 349 347 344 339
334 336 339 341 339 340 343 347 346 345 346 347 350 351 350 349 348 348 349 349 349 350 351 352 352 352 355 357 356 355 351 352 349 350 349 352 353 355 355 351 350 349 350 349 350 347 344 340 338
336 337 339 342 340 344 344 348 348 348 345 347 349 351 351 351 349 349 349 349 349 351 352 353 353 353 355 358 356 355 353 353 353 353 353 354 354 354 354 351 349 351 350 349 349 347 342 338 337
338 338 340 346 341 345 345 348 349 349 348 344 347 348 351 351 351 349 349 349 349 350 352 354 354 354 355 355 355 354 354 354 354 353 354 354 354 355 355 351 352 351 350 348 347 345 339 339 339
337 339 339 340 340 344 346 346 348 349 349 348 346 347 349 350 350 349 350 350 350 350 353 355 356 356 356 356 356 355 353 353 352 350 354 358 355 355 354 353 351 350 350 348 343 341 337 338 338
335 338 340 340 340 342 344 347 346 353 351 349 348 347 347 349 349 350 350 350 350 352 353 356 357 358 357 357 356 355 353 351 350 350 352 355 353 352 353 353 350 350 348 347 344 341 338 337 338
335 337 339 340 346 346 345 347 346 346 352 351 348 348 347 347 348 351 351 351 351 353 354 358 360 360 359 358 356 356 355 354 354 351 354 356 356 355 356 355 354 353 347 334 343 340 339 336 340
334 335 337 339 344 349 342 349 347 345 347 352 351 350 348 348 348 349 352 352 352 352 355 357 361 361 361 359 357 356 354 351 347 347 347 352 357 355 355 355 351 351 338 342 339 338 339 339 336
332 334 337 338 343 350 343 344 347 344 346 348 352 351 349 348 349 349 351 352 352 352 354 357 362 363 362 361 358 355 354 349 350 347 351 352 358 353 351 350 352 348 338 340 340 339 340 341 337
331 333 336 337 340 344 345 346 349 346 345 345 347 351 351 350 348 351 349 350 351 352 354 356 363 365 364 363 360 357 356 353 348 348 352 351 349 352 349 348 351 346 337 340 340 339 340 339 339
330 333 337 339 340 341 341 346 353 346 342 343 342 344 350 352 349 350 352 352 352 353 354 356 361 367 366 364 362 361 359 356 355 355 353 349 345 346 352 349 353 346 341 340 339 339 340 338 338
330 332 335 341 341 340 339 343 343 343 341 339 340 339 343 350 351 348 351 353 354 353 356 357 360 366 367 364 364 363 362 358 355 354 353 349 347 345 347 350 350 347 340 340 339 337 336 336 337
328 332 333 336 338 339 339 339 339 341 341 339 339 338 338 347 350 350 348 350 352 352 355 357 360 364 366 362 366 365 363 361 354 353 353 354 349 345 343 347 347 345 340 341 339 336 336 335 335
326 329 333 337 343 342 339 339 340 341 339 338 339 338 339 342 350 350 348 349 350 351 353 357 359 364 363 362 365 364 363 363 360 357 356 353 350 347 345 348 347 343 339 341 338 336 336 335 334
325 327 331 334 336 338 340 340 338 340 340 338 338 337 338 342 348 350 348 347 348 349 351 354 357 361 363 362 361 361 361 361 361 359 356 355 351 352 346 347 344 340 340 340 339 337 337 337 337
326 327 328 336 341 336 339 338 337 336 337 337 338 337 338 342 346 349 349 348 347 349 348 350 353 355 360 362 363 362 361 360 360 359 358 357 354 352 347 345 344 338 339 338 339 338 336 335 335
Wind_Speed
18 18 18 9 2 4 2 6 7 6 12 13 5 15 11 12 6 11 19 21 19 19 19 17 17 18 21 21 21 20 20 20 19 17 17 17 17 16 16 14 14 13 13 12 12 12 12 12 12
18 17 20 8 2 4 4 10 9 13 16 11 9 12 13 6 6 19 23 19 18 23 19 15 17 19 19 20 20 19 18 17 16 15 14 14 13 13 13 12 12 12 11 10 9 10 10 11 10
16 15 8 6 11 6 9 11 17 14 8 6 8 10 11 8 21 25 26 22 22 19 18 13 14 17 18 18 20 20 16 15 13 12 12 11 10 11 11 10 10 10 9 8 8 8 8 8 8
14 10 10 5 9 10 14 14 12 10 9 8 19 14 22 28 23 28 27 24 20 17 15 15 15 17 17 18 19 18 14 13 11 10 9 8 8 9 9 9 9 8 7 6 7 7 7 6 6
18 10 14 9 11 8 11 10 10 9 11 9 21 22 21 15 29 28 24 22 20 16 16 15 17 16 17 17 17 16 13 11 10 9 7 7 7 7 7 7 7 7 7 6 6 6 6 5 4
7 4 10 12 11 8 9 7 6 12 10 6 20 20 14 19 27 25 23 19 19 18 17 15 16 15 16 16 15 15 12 10 9 8 8 7 5 4 5 5 5 5 4 4 5 5 5 6 4
15 13 7 14 9 8 9 7 6 10 10 13 19 17 15 20 24 23 22 18 18 17 17 16 15 15 15 15 15 12 10 9 8 9 8 6 4 2 3 2 3 2 3 4 4 4 5 6 5
12 6 5 12 9 12 11 7 9 10 11 17 15 12 19 22 24 24 20 18 14 19 13 17 17 15 14 13 13 11 8 9 8 7 7 6 4 1 1 1 1 2 1 2 2 3 4 5 6
14 9 1 6 18 15 11 11 7 11 13 11 4 18 23 26 26 27 25 18 14 17 16 13 14 14 14 14 12 11 9 8 7 6 6 3 5 4 1 4 5 6 3 1 2 4 5 2 3
8 8 8 8 17 17 10 12 12 12 14 13 8 24 27 26 25 26 22 20 18 19 19 17 18 15 14 14 12 10 9 9 8 7 7 4 2 3 4 4 3 1 1 2 2 6 3 6 4
13 12 20 10 8 12 13 11 12 12 12 16 15 21 23 25 23 23 23 23 22 20 18 17 16 14 14 16 12 12 11 12 10 8 7 6 3 6 7 6 7 5 1 7 1 3 4 8 7
14 16 13 6 7 5 13 13 12 8 13 15 16 20 23 22 19 22 23 22 22 21 18 16 18 16 13 13 12 11 11 11 10 11 10 7 5 6 4 2 3 4 5 3 1 4 5 5 7
12 10 4 4 8 9 13 11 11 9 8 15 18 20 22 21 23 23 21 21 20 21 20 19 17 16 13 12 12 11 10 10 10 8 9 10 9 3 4 3 5 5 6 4 5 5 6 7 9
12 12 9 4 10 10 10 12 9 13 11 16 19 20 21 22 24 24 23 22 21 21 21 20 18 17 14 13 10 9 11 10 11 10 9 9 9 3 4 6 6 7 4 7 5 5 7 8 7
13 10 13 10 9 11 12 14 13 18 14 17 18 18 20 21 26 25 26 24 23 22 21 20 19 18 17 16 14 13 14 13 12 12 9 10 10 8 7 8 7 8 4 6 9 7 7 10 11
19 17 16 14 14 12 16 18 17 15 17 17 18 17 19 22 25 26 26 26 25 24 23 22 20 20 19 17 16 16 15 14 13 12 13 12 11 9 8 10 10 6 7 8 8 8 12 11 11
16 17 20 13 16 14 16 12 18 18 18 17 17 17 18 20 22 27 27 27 26 25 24 24 21 20 20 19 17 16 15 14 12 12 8 8 11 12 10 13 9 3 8 7 8 7 10 9 10
19 21 20 18 17 13 16 8 19 17 17 17 17 17 18 20 23 28 28 27 26 26 25 24 24 22 18 17 18 16 15 13 14 14 12 11 10 12 12 11 7 7 9 9 4 6 9 9 8
22 20 19 16 24 19 18 16 15 15 14 16 19 18 19 20 20 27 28 27 27 26 27 26 25 24 22 20 17 18 16 17 17 15 13 10 10 11 10 10 10 6 11 3 9 9 9 6 2
27 23 18 12 17 21 18 19 18 19 15 15 17 20 20 21 20 23 28 28 29 29 28 26 26 25 25 20 20 20 18 19 16 13 13 10 13 12 9 10 8 7 7 3 4 5 7 5 2
25 24 20 17 25 22 15 17 17 15 20 16 17 18 22 23 22 22 24 30 30 30 30 29 28 26 25 24 20 15 11 11 8 12 10 11 12 11 9 7 7 1 3 7 1 2 3 7 0
24 24 25 20 12 13 19 16 21 19 21 20 19 19 21 23 23 22 24 29 31 31 31 28 28 27 26 25 22 20 17 17 17 14 15 14 12 9 8 7 5 3 5 2 2 3 4 3 4
26 24 24 23 17 20 24 17 11 21 21 22 21 21 22 23 24 24 25 31 31 31 31 31 28 27 26 26 25 20 20 17 13 12 9 9 6 8 8 6 5 3 4 4 2 2 3 2 4
24 22 23 23 19 19 22 17 19 17 19 16 22 22 22 22 24 24 29 32 32 32 32 30 31 29 28 25 25 22 21 21 14 14 12 10 11 9 9 9 8 5 3 4 4 3 4 4 2
28 24 16 19 18 20 22 18 18 18 16 20 18 20 24 23 23 24 26 25 32 32 32 30 30 29 28 27 26 26 22 19 15 11 15 10 10 10 12 11 10 8 7 6 5 5 4 4 4
31 27 19 23 18 18 23 23 21 21 14 9 14 15 20 23 23 25 27 27 31 33 32 31 31 29 29 28 27 25 24 23 21 19 14 14 11 10 10 13 12 11 10 9 8 9 8 7 6
29 28 27 27 23 20 21 26 24 11 14 19 18 20 14 21 23 27 27 31 32 34 35 35 31 31 30 30 27 27 25 25 23 20 21 14 13 13 13 16 18 16 14 12 10 10 10 7 8
34 24 26 22 27 25 22 22 16 19 20 20 17 17 13 17 22 24 25 29 33 36 36 35 33 31 31 29 28 27 27 26 22 20 18 20 18 18 17 17 19 19 18 18 16 13 13 11 10
20 27 23 25 23 21 20 18 20 12 13 20 21 23 16 15 19 22 24 32 36 36 35 36 35 32 32 31 29 28 28 27 27 24 25 23 22 21 22 26 26 22 19 16 14 12 9 11 10
29 28 32 18 28 20 22 18 14 16 17 15 14 12 11 19 18 20 24 27 33 34 37 37 36 36 35 31 30 29 28 30 30 30 29 29 30 29 32 30 25 21 20 19 16 14 13 14 13
Wind_Direction
169 163 170 176 196 38 126 130 133 149 111 78 105 117 96 78 357 99 148 147 131 131 129 119 121 131 143 144 145 141 138 136 128 117 105 96 89 85 83 83 83 81 75 70 64 62 59 59 60
186 190 197 272 153 114 261 134 111 118 106 121 103 96 116 83 95 118 132 135 135 131 130 119 125 136 138 146 149 149 143 138 133 125 117 102 89 83 81 83 84 79 72 66 61 60 55 51 52
208 215 227 233 109 72 102 123 98 104 98 92 90 70 89 115 129 140 139 139 131 123 129 123 130 138 134 135 145 153 145 143 140 133 120 101 93 84 80 81 79 74 68 60 52 45 42 44 37
214 223 249 336 62 66 120 103 119 126 88 64 96 83 110 137 131 132 143 140 131 130 122 132 136 141 137 135 143 153 146 145 144 138 121 104 96 85 85 84 77 67 63 49 32 28 20 22 26
248 260 248 93 80 78 105 113 149 132 94 105 108 117 114 110 126 139 146 137 132 137 133 134 137 142 143 141 142 142 139 138 144 146 135 119 104 93 97 92 67 57 58 31 15 7 5 9 19
245 287 290 98 94 107 105 151 132 91 96 102 109 129 122 129 136 145 139 140 141 136 132 130 136 144 146 144 139 138 133 141 150 155 148 141 124 105 106 88 60 49 35 7 349 350 11 14 21
251 260 327 92 111 117 119 138 170 132 125 136 138 126 127 146 145 145 133 146 154 137 137 135 136 141 142 146 149 145 138 141 142 151 157 157 140 110 88 71 33 37 9 358 359 360 17 24 32
270 225 213 58 119 111 128 178 88 130 109 125 149 137 153 148 154 137 147 149 167 140 145 145 141 143 148 154 158 158 151 146 147 160 166 168 168 126 42 65 280 330 357 4 10 24 21 39 47
277 292 246 261 47 121 142 125 136 99 134 156 108 132 144 150 154 148 141 149 173 138 153 158 145 149 156 155 165 161 159 162 164 162 168 161 206 208 227 200 271 296 250 309 52 28 45 69 48
243 335 305 26 163 121 154 139 136 154 147 146 136 116 143 159 160 155 153 159 173 168 162 158 158 160 168 162 160 168 177 179 183 184 178 221 179 252 256 247 287 299 228 164 87 46 29 340 255
240 172 291 123 9 126 150 148 145 149 167 158 152 143 154 164 169 162 167 175 176 165 170 139 161 163 183 159 172 179 182 189 194 201 216 232 261 241 226 215 204 190 285 209 167 296 3 12 339
246 174 237 73 121 190 157 146 159 168 157 151 156 156 163 170 175 174 173 177 171 171 176 173 169 171 186 168 182 199 193 208 205 208 216 254 234 241 260 21 337 330 356 347 344 344 349 324 327
227 277 197 209 156 236 149 151 152 166 135 145 145 159 172 177 178 180 182 177 178 178 180 183 180 182 188 183 193 200 217 206 216 213 217 233 237 232 312 324 290 303 317 338 312 318 330 319 317
223 223 262 224 180 196 196 149 169 153 156 148 153 169 178 183 182 182 187 185 188 183 187 186 187 188 204 197 208 212 206 224 226 224 220 218 250 236 255 270 284 277 302 316 310 341 312 317 307
260 248 220 222 178 170 212 161 203 156 164 159 166 176 180 187 187 189 189 191 191 190 189 192 196 194 200 208 204 213 221 221 232 226 223 227 235 250 254 270 272 286 301 287 271 270 275 290 316
226 240 241 182 179 156 219 182 184 160 167 172 175 179 184 190 192 193 194 196 193 195 195 200 199 198 201 207 208 214 224 229 234 230 228 215 232 243 248 262 254 250 280 283 295 312 317 323 320
226 227 228 147 172 157 217 228 171 164 181 185 180 182 189 192 198 194 198 199 199 200 196 201 204 206 199 203 212 217 225 229 235 241 233 225 225 245 251 268 280 298 277 290 278 291 303 318 305
219 221 222 179 173 189 209 250 146 166 192 193 186 188 191 193 199 197 201 199 202 199 203 204 205 209 209 210 214 225 225 230 238 239 229 240 242 247 244 257 282 273 277 286 268 320 314 301 277
235 221 235 216 161 196 192 229 157 171 199 202 187 199 192 200 197 200 199 200 200 203 203 204 205 202 206 207 208 221 222 228 230 235 197 223 232 234 230 244 238 250 265 255 330 310 296 309 333
242 246 235 227 152 193 202 210 195 175 203 207 204 197 204 200 201 197 196 202 200 201 201 199 202 202 202 204 216 223 214 223 227 223 229 227 234 228 227 242 269 257 291 305 312 316 315 300 83
233 244 243 230 155 219 227 227 201 186 185 212 212 209 203 207 203 189 199 202 202 200 201 199 199 200 201 213 204 218 233 248 238 210 205 235 232 232 231 243 250 162 321 306 127 270 299 296 199
227 232 253 239 178 246 207 248 195 206 198 192 213 210 209 204 204 194 199 203 204 203 201 203 198 202 203 206 219 198 205 212 219 218 216 202 195 211 216 224 223 229 286 329 256 243 264 239 305
232 230 234 249 216 194 219 225 209 216 198 194 204 212 211 206 205 203 195 202 207 203 201 202 199 202 209 198 211 203 216 211 215 212 157 196 175 212 213 207 198 228 294 195 269 243 235 235 285
231 240 241 236 248 249 239 218 250 172 229 196 194 203 210 211 204 202 204 201 205 206 202 201 196 200 203 198 204 215 199 226 207 209 186 201 210 192 202 203 201 213 222 212 235 235 224 264 304
224 227 231 234 229 235 239 219 206 239 213 205 225 205 198 204 206 201 200 200 201 206 201 199 195 196 201 200 201 202 213 209 225 203 206 200 201 204 179 201 198 208 204 197 213 212 231 227 254
215 219 223 225 231 232 230 241 233 230 233 238 212 228 189 192 204 204 201 202 198 200 200 199 194 195 198 202 201 199 203 209 213 210 222 201 216 199 178 195 204 213 209 207 204 202 218 214 228
219 220 229 237 231 237 226 219 243 256 239 226 242 235 221 181 203 202 200 201 199 199 198 198 197 194 198 201 197 197 199 210 210 213 202 212 201 203 196 198 198 201 204 209 210 216 208 236 239
236 218 221 231 240 242 233 238 220 205 224 242 221 236 210 201 203 202 200 199 200 200 198 198 197 195 197 201 196 197 201 204 212 203 206 207 201 206 189 199 205 201 198 196 199 212 219 220 242
218 233 225 228 234 243 245 242 221 202 206 219 223 230 201 201 199 205 198 199 197 199 198 198 198 198 197 200 198 197 200 200 201 206 201 200 203 200 200 201 202 194 194 202 200 217 239 217 225
228 226 231 231 223 239 256 248 194 211 196 235 263 263 229 183 193 206 204 199 196 199 198 197 199 201 202 199 197 195 197 198 199 201 203 198 204 201 201 204 198 191 187 197 185 216 219 223 231